Location: Newark
(46.7000°N, 66.1167°W)
Time: 12:30:04
(UTC+00:00)

ISS - Visible Passes

Search period start: 21 October 2019 00:00
Search period end: 31 October 2019 00:00
Orbit: 411 x 421 km, 51.6° (Epoch: 21 October)

Date Brightness Start Highest point End Pass type
(mag) Time Alt. Az. Time Alt. Az. Time Alt. Az.
23 Oct -1.0 10:15:06 10° S 10:17:36 20° SE 10:20:06 10° E visible
24 Oct -0.7 09:27:47 10° SSE 09:29:13 12° SE 09:30:40 10° ESE visible
25 Oct -2.6 10:13:40 10° SW 10:16:53 44° SE 10:20:07 10° ENE visible
26 Oct -1.9 09:25:34 11° SSW 09:28:23 28° SE 09:31:20 10° E visible
27 Oct -1.4 08:39:33 18° SE 08:39:55 18° SE 08:42:19 10° E visible
27 Oct -3.8 10:12:56 10° WSW 10:16:18 84° NNW 10:19:41 10° ENE visible
28 Oct -3.5 09:26:18 31° SW 09:27:41 65° SSE 09:31:02 10° ENE visible
29 Oct -2.1 08:39:58 33° ESE 08:39:58 33° ESE 08:42:18 10° ENE visible
29 Oct -3.3 10:12:52 12° W 10:15:50 48° NNW 10:19:07 10° ENE visible
30 Oct -3.7 09:26:26 49° WNW 09:27:06 63° NNW 09:30:28 10° ENE visible
